Flag for Slovakia Weather past 2 weeks in Bratislava, Slovakia

Now
64 °F

Passing clouds.


Feels Like: 64 °F
Forecast: 65 / 82 °F
Wind: 3 mph from North

Location: Bratislava Ivanka

Current Time: Jul 31, 2014 at 6:24:18 AM

Latest Report: Jul 31, 2014 at 6:00 AM


Visibility: N/A

Pressure: 29.77 "Hg

Humidity: 94%

Dew point: 63 °F

Location of BratislavaLocation

Historic Weather in Bratislava — Graph

°F

Bratislava temperature yesterday

Maximum temperature yesterday: 81 °F (at 1:00 PM)
Minimum temperature yesterday: 64 °F (at 4:00 AM)
Average temperature yesterday: 71 °F

Past Weeks' High & Low Weather Summary

 TemperatureHumidityPressure
High90 °F (Jul 20, 3:00 PM)100% (Jul 31, 12:30 AM)30.09 "Hg (Jul 31, 12:30 AM)
Low59 °F (Jul 26, 6:00 AM)31% (Jul 16, 5:00 PM)29.68 "Hg (Jul 21, 4:30 PM)
Average74 °F67%29.90 "Hg
* Reported Jul 16 5:00 AM — Jul 31 5:30 AM, Bratislava, Weather by CustomWeather, © 2014

Note: Actual official high and low records may vary slightly from our data, if they occured in-between our weather recording intervals... More about our weather records

Advertising

Bratislava weather history for previous 24 hours

 ConditionsComfort  
Time TempWeatherWind HumidityBarometerVisibility
5:30 AM
Jul 31
64 °FPassing clouds.6 mph94%29.77 "HgN/A
5:00 AM64 °FPassing clouds.6 mph94%29.77 "HgN/A
4:30 AM64 °FPassing clouds.6 mph94%29.77 "HgN/A
4:00 AM64 °FPassing clouds.5 mph94%29.77 "HgN/A
3:30 AM66 °FPassing clouds.7 mph94%29.77 "HgN/A
3:00 AM66 °FPassing clouds.6 mph94%29.77 "HgN/A
2:30 AM66 °FPassing clouds.3 mph94%29.77 "HgN/A
2:00 AM66 °FPartly cloudy.5 mph94%29.77 "HgN/A
1:30 AM64 °FPassing clouds.3 mph100%29.77 "HgN/A
1:00 AM64 °FPassing clouds.3 mph100%29.77 "HgN/A
12:30 AM64 °FLight rain. Passing clouds.7 mph100%29.77 "HgN/A
12:00 AM64 °FLight rain. Overcast.6 mph94%29.77 "HgN/A
11:30 PM
Jul 30
64 °FThundershowers. Partly cloudy.5 mph94%29.74 "HgN/A
11:00 PM64 °FThunderstorms. Passing clouds.6 mph94%29.74 "HgN/A
10:30 PM64 °FThunderstorms. Partly cloudy.3 mph94%29.77 "HgN/A
10:00 PM64 °FThunderstorms. Partly cloudy.7 mph94%29.77 "HgN/A
9:30 PM64 °FThunderstorms. Broken clouds.13 mph94%29.77 "Hg3 mi
9:00 PM72 °FThunderstorms. Broken clouds.8 mph78%29.71 "HgN/A
8:30 PM73 °FThundershowers. Partly sunny.10 mph83%29.71 "HgN/A
8:00 PM73 °FPartly sunny.6 mph83%29.71 "HgN/A
7:30 PM73 °FSprinkles. Scattered clouds.12 mph83%29.71 "HgN/A
7:00 PM73 °FScattered clouds.8 mph83%29.71 "HgN/A
6:30 PM73 °FScattered clouds.7 mph83%29.74 "HgN/A
6:00 PM73 °FThundershowers. Scattered clouds.8 mph83%29.71 "HgN/A
5:30 PM77 °FScattered clouds.8 mph69%29.74 "HgN/A
5:00 PM75 °FThundershowers. Scattered clouds.7 mph74%29.71 "HgN/A
4:30 PM70 °FThundershowers. Scattered clouds.13 mph83%29.74 "HgN/A
4:00 PM72 °FThunderstorms. Partly sunny.18 mph78%29.74 "HgN/A
3:30 PM72 °FStrong thunderstorms. Partly sunny.8 mph83%29.77 "Hg5 mi
3:00 PM72 °FStrong thunderstorms. Broken clouds.10 mph88%29.77 "Hg4 mi
2:30 PM77 °FThunderstorms. Scattered clouds.5 mph74%29.77 "HgN/A
2:00 PM77 °FThundershowers. Passing clouds.7 mph74%29.74 "HgN/A
1:30 PM79 °FThundershowers. Broken clouds.12 mph70%29.74 "HgN/A
1:00 PM81 °FBroken clouds.12 mph66%29.77 "HgN/A
12:30 PM79 °FBroken clouds.7 mph65%29.77 "HgN/A
12:00 PM79 °FScattered clouds.8 mph65%29.77 "HgN/A
11:30 AM77 °FScattered clouds.8 mph69%29.77 "HgN/A
11:00 AM77 °FScattered clouds.10 mph74%29.77 "HgN/A
10:30 AM77 °FPassing clouds.10 mph69%29.77 "HgN/A
10:00 AM75 °FScattered clouds.8 mph74%29.77 "Hg6 mi
9:30 AM73 °FBroken clouds.6 mph74%29.77 "Hg5 mi
9:00 AM72 °FBroken clouds.6 mph83%29.77 "Hg4 mi
8:30 AM72 °FPartly sunny.6 mph83%29.77 "Hg4 mi
8:00 AM70 °FBroken clouds.5 mph83%29.77 "Hg4 mi
7:30 AM68 °FFog.5 mph88%29.77 "Hg3 mi
7:00 AM66 °FFog.3 mph94%29.77 "Hg2 mi
6:30 AM64 °FFog.6 mph94%29.77 "Hg1 mi
6:00 AM64 °FFog.5 mph94%29.77 "Hg1 mi
Weather by CustomWeather, © 2014

See weather overviewHow to use our weather pages